Showing default

COSMOS 2170, 21784

Orbit data source: Space-Track

COSMOS 2170, 21784 is a payload satellite owned by UNKS RF (CIS) in LEO that was launched on Tue, 12 Nov 1991 UTC via a TSIKLON-3 launch vehicle from the Plesetsk Missile And Space Complex (PKMTR). Payload-class satellites include a variety of spacecraft equipped with specific instruments for various scientific and technological missions. These include communications satellites like Starlink; space stations such as the ISS; scientific satellites like the Hubble; Earth observation satellites from companies like Planet Labs, Umbra, and HawkEye 360; GPS; miniature CubeSats for education and research; and military/defense satellites.

Loading next visibility...
Identifier
21784, 1991-077F
Orbit
LEO
Country
Flag of CISCIS
Related business
Manufacturer
NPO PM
Mission
Defense Communications
Bus & Motor
STRELA-3, Unknown motor
Mass
225 kg wet, 225 kg dry
Launch date (UTC)
1991-11-12 (34 years ago)
Launch vehicle
TSIKLON-3
Launch site
Plesetsk Missile And Space Complex (PKMTR)
Object type
Payload
Rocket body
Debris
Shape & HBR
Cyl, 0.8 m
Radar Cross Section
1.257 m², Medium (>0.1 m² and < 1m²)

Expand to show TLE details & history
Last TLE update: 17 hours ago

TLE from 17 hours ago
0 COSMOS 2170
1 21784U 91077F   25261.03895094  .00000050  00000-0  21983-3 0  9991
2 21784  82.6034  82.1157 0002515 170.9086 314.1898 12.62578888559733
Epoch: 2025-09-18T00:56Z
TLE epoch observation values (Epoch: 2025-09-18T00:56:05.361Z)
Latitude
54.3409°
Longitude
-119.48493°
Altitude
1,419.843 km
Speed
7.156 km/s
True Right ascension
16h 46m 58s
True Declination
54° 11' 30"
Sunlit
Object was in daylight at epoch
Visualization orbit readout
Latitude
Unknown
Longitude
Unknown
Altitude
Unknown
Speed
Unknown
Apparent Right ascension
Unknown
Apparent Declination
Unknown
Sunlit
N/A
Visualization observer readout
Local Sidereal Time
11:07:53
Azimuth
Unknown
Elevation
Unknown
Doppler factor
Unknown
Orbital elements
Apogee altitude
1,411.596 km
Perigee altitude
1,407.679 km
Semi-major axis
7,787.774 km
Eccentricity
0.00025
Inclination
82.6034°
RAAN
82.1157°
Arg. of periapsis
170.9086°
True anomaly
314.16913°
Mean anomaly
314.1898°
Eccentric anomaly
314.17947°
Mean motion
3.15808 °/min
Orbital period
113.99 mins
BSTAR
0.00021983
Loading maneuver chart data...
Computing Atmospheric mass density...
Loading historical data...
Loading historical data...
Loading historical data...
Loading historical data...
Loading historical data...
Loading historical data...
Loading historical data...

Documentation

Showing up to 5 results
|